[[{"header":{"parameterUnit":"m.s-1","parameterCategory":1,"la1":30.2991,"la2":30.254,"lo1":-89.0895,"lo2":-89.0444,"dy":0.0017,"dx":0.0017,"nx":28,"ny":28,"refTime":"2024-09-30T21:00:00:Z","depth":0,"parameterNumber":2,"parameterNumberName":"U-component_of_WINDS"},"data":[0,0,0,0,0,0,0,0,0,0,0,0,0,0,0,0,0,0,0,0,0,0,0,0,0,0,0,0,0,0,0,0,0,0,0,0,0,0,0,0,0,0,0,0,0,0,0,0,0,0,0,0,0,0,0,0,0,0,0.7704,0.7705,0,0.7821,0.7823,0.7824,0.7885,0.7885,0.7885,0.7885,0.8004,0.8007,0.8011,0,0,0,0,0,0,0,0,0,0,0,0,0,0.753,0.7532,0.7704,0.7705,0.7707,0.7821,0.7823,0.7824,0.7885,0.7885,0.7885,0.7885,0.8003,0.8007,0.8011,0,0,0,0,0,0,0,0,0,0,0,0,0,0.7622,0.7533,0.7704,0.7751,0.7756,0.7821,0.7823,0.7825,0.7885,0.7885,0.7885,0.7885,0.8002,0.8007,0.8011,0.8038,0,0,0.8026,0.8028,0,0,0,0,0,0,0,0,0.7617,0.7628,0.7742,0.7748,0.7754,0.7839,0.7805,0.7896,0.7885,0.7836,0.7885,0.7885,0.7949,0.7958,0.798,0.8044,0.8049,0.8026,0.8029,0.8031,0.8032,0,0,0,0,0,0,0,0.761,0.7624,0.775,0.7744,0.7751,0.7765,0.7778,0.7823,0.789,0.784,0.7845,0.7858,0.7952,0.7975,0.7983,0.8051,0.8026,0.803,0.8033,0.8035,0.814,0.814,0,0,0,0,0,0,0.7596,0.7618,0.7747,0.7754,0.7684,0.7768,0.7783,0.7811,0.789,0.7902,0.7858,0.786,0.7967,0.7978,0.7988,0.8023,0.8031,0.8035,0.8038,0.814,0.814,0.814,0,0,0,0,0,0,0.7592,0.7607,0.7742,0.7687,0.7705,0.7771,0.7802,0.7813,0.7837,0.7903,0.7916,0.7869,0.7968,0.7981,0.8025,0.8028,0.8037,0.8042,0.814,0.814,0.814,0.8095,0,0,0,0,0,0,0.7587,0.7606,0.7617,0.7687,0.7708,0.7778,0.7803,0.7816,0.7845,0.7849,0.7917,0.7929,0.7969,0.8017,0.8029,0.8035,0.8045,0.814,0.814,0.814,0.8096,0.8093,0.8091,0,0,0,0,0,0.7581,0.76,0.7617,0.7632,0.7724,0.7778,0.779,0.7836,0.7845,0.7856,0.7899,0.7926,0.8026,0.8021,0.8035,0.8042,0.814,0.814,0.814,0.8098,0.8094,0.8091,0,0,0,0,0,0,0.7528,0.761,0.763,0.7673,0.7718,0.7788,0.7804,0.7831,0.7874,0.7877,0.7932,0.7947,0.7985,0.8018,0.8012,0.8071,0.8086,0.8088,0.8048,0.8046,0.8043,0.8034,0.8049,0,0,0,0,0,0.7522,0.7559,0.7628,0.7659,0.768,0.7738,0.7763,0.7795,0.7844,0.7863,0.7909,0.7955,0.7997,0.8023,0.8065,0.8101,0.8116,0.8113,0.811,0.8107,0.8109,0.8129,0.8128,0.814,0.814,0.814,0,0,0.7509,0.7558,0.7578,0.7649,0.7688,0.7725,0.7754,0.7792,0.7819,0.7869,0.7913,0.7948,0.8003,0.8042,0.8062,0.8071,0.8109,0.8107,0.8105,0.8108,0.8129,0.8128,0.8127,0.814,0.814,0.814,0,0,0.7503,0.7544,0.7574,0.7612,0.767,0.7708,0.7715,0.7781,0.7806,0.7851,0.7888,0.7921,0.7992,0.8029,0.8057,0.8064,0.809,0.8076,0.8061,0.808,0.8079,0.8079,0.808,0.808,0.8077,0.8077,0.8077,0,0.748,0.7537,0.7586,0.7621,0.7651,0.7697,0.7727,0.7761,0.783,0.7849,0.7858,0.7946,0.7987,0.8035,0.8036,0.8058,0.8067,0.8069,0.8075,0.8075,0.8075,0.8077,0.8078,0.8075,0.8075,0.8076,0.8076,0,0.7504,0.7543,0.756,0.7625,0.7657,0.7689,0.7742,0.7768,0.7796,0.7832,0.7876,0.7926,0.7978,0.7992,0.802,0.8044,0.8047,0.8065,0.8081,0.8071,0.8074,0.8075,0.8072,0.8073,0.8073,0.8074,0,0,0.7471,0.7561,0.7566,0.7596,0.7662,0.7693,0.7727,0.7778,0.7798,0.7844,0.7872,0.793,0.7947,0.7978,0.8011,0.8027,0.8028,0.8043,0.8045,0.8038,0.8055,0.8041,0.8041,0.8045,0.8046,0.8046,0.805,0,0.7475,0.7538,0.7582,0.7628,0.7664,0.7707,0.7736,0.7779,0.7814,0.7848,0.7886,0.7926,0.7945,0.7965,0.7983,0.8024,0.8032,0.8024,0.8072,0.8073,0.8057,0.8043,0.8029,0.803,0.8052,0.8052,0.8052,0,0.7488,0.7532,0.7581,0.7642,0.7659,0.7684,0.7734,0.7767,0.7816,0.784,0.7874,0.7907,0.7943,0.7955,0.8004,0.7998,0.802,0.8043,0.8044,0.805,0.8062,0.8048,0.8032,0.8032,0.8055,0.8054,0.8054,0,0.7458,0.7529,0.7567,0.7591,0.7663,0.768,0.7711,0.776,0.7788,0.783,0.7848,0.7894,0.792,0.7954,0.7998,0.8003,0.8042,0.8058,0.8062,0.8061,0.8069,0.8068,0.8056,0.8084,0.8084,0.8084,0.8084,0,0.7458,0.7486,0.7554,0.7578,0.761,0.7659,0.769,0.7724,0.7767,0.7797,0.7837,0.7864,0.7921,0.7954,0.7989,0.8024,0.8035,0.8055,0.8063,0.8051,0.8048,0.8066,0.8067,0.8084,0.8084,0.8084,0.8084,0,0.743,0.7477,0.7521,0.7586,0.7602,0.7623,0.7678,0.7702,0.7738,0.7775,0.7787,0.7843,0.7884,0.7931,0.7989,0.8011,0.8044,0.8057,0.8027,0.8032,0.8033,0.8032,0.8032,0.8034,0.806,0.806,0.806,0,0.7426,0.7449,0.7516,0.7539,0.7568,0.7605,0.7633,0.7681,0.7708,0.7765,0.7782,0.7826,0.7864,0.7928,0.7974,0.8017,0.8031,0.8028,0.8038,0.8024,0.803,0.8028,0.803,0.8025,0.8024,0.8024,0.8024,0,0.7415,0.7437,0.7476,0.7522,0.7554,0.7592,0.7633,0.7649,0.7705,0.7733,0.7776,0.7806,0.7863,0.7906,0.7955,0.7986,0.8013,0.802,0.8023,0.8011,0.7992,0.8001,0.8019,0.802,0.802,0.8021,0.8021,0.8021,0.74,0.7421,0.7471,0.7512,0.7547,0.7583,0.7608,0.7647,0.7683,0.7734,0.776,0.7802,0.7849,0.7917,0.7947,0.798,0.7989,0.7994,0.7995,0.7995,0.7991,0.7987,0.7989,0.7989,0.7989,0.7989,0.7989,0,0.739,0.7424,0.7461,0.7516,0.7547,0.7571,0.7616,0.7641,0.7677,0.7719,0.7755,0.7803,0.7844,0.7892,0.7936,0.7953,0.7967,0.7963,0.7962,0.7968,0.7981,0.7973,0.7951,0.7951,0.7951,0.7951,0.7951,0.7951,0.7389,0.7426,0.7453,0.7507,0.7541,0.7582,0.7606,0.7639,0.7672,0.7724,0.7758,0.7789,0.7833,0.788,0.7918,0.7931,0.7945,0.7937,0.7954,0.7965,0.7968,0.7971,0.7964,0.794,0.794,0.7939,0.7939,0.7939]},{"header":{"parameterUnit":"m.s-1","parameterCategory":1,"la1":30.2991,"la2":30.254,"lo1":-89.0895,"lo2":-89.0444,"dy":0.0017,"dx":0.0017,"nx":28,"ny":28,"refTime":"2024-09-30T21:00:00:Z","depth":0,"parameterNumber":3,"parameterNumberName":"V-component_of_WINDS"},"data":[0,0,0,0,0,0,0,0,0,0,0,0,0,0,0,0,0,0,0,0,0,0,0,0,0,0,0,0,0,0,0,0,0,0,0,0,0,0,0,0,0,0,0,0,0,0,0,0,0,0,0,0,0,0,0,0,0,0,2.1493,2.1494,0,2.1499,2.1499,2.1499,2.1489,2.1488,2.1488,2.1488,2.1491,2.1491,2.1491,0,0,0,0,0,0,0,0,0,0,0,0,0,2.147,2.147,2.1493,2.1494,2.1494,2.1499,2.1499,2.1499,2.1489,2.1488,2.1488,2.1488,2.1491,2.1491,2.1491,0,0,0,0,0,0,0,0,0,0,0,0,0,2.1478,2.147,2.1493,2.1489,2.1489,2.1499,2.1499,2.1499,2.1489,2.1488,2.1488,2.1487,2.149,2.1491,2.1492,2.1505,0,0,2.1493,2.1494,0,0,0,0,0,0,0,0,2.1478,2.1479,2.149,2.149,2.1489,2.1493,2.1492,2.1501,2.1489,2.1489,2.1488,2.1487,2.1492,2.1492,2.1494,2.1505,2.1505,2.1493,2.1494,2.1494,2.1494,0,0,0,0,0,0,0,2.1477,2.1479,2.1496,2.149,2.149,2.1485,2.1486,2.1493,2.1493,2.1489,2.1488,2.1489,2.1491,2.1494,2.1494,2.1505,2.1493,2.1494,2.1494,2.1494,2.1523,2.1524,0,0,0,0,0,0,2.1477,2.1478,2.1495,2.1496,2.1482,2.1486,2.1487,2.1492,2.1493,2.1492,2.1489,2.1489,2.1493,2.1493,2.1494,2.1507,2.1494,2.1494,2.1495,2.1523,2.1523,2.1524,0,0,0,0,0,0,2.1477,2.1479,2.1495,2.1487,2.1488,2.1487,2.1493,2.1492,2.1495,2.1493,2.1493,2.1492,2.1492,2.1493,2.1502,2.1507,2.1495,2.1495,2.1522,2.1523,2.1524,2.1536,0,0,0,0,0,0,2.1476,2.1479,2.1486,2.1487,2.1489,2.1504,2.1493,2.1493,2.1496,2.1495,2.1496,2.1495,2.1492,2.1501,2.1502,2.1508,2.1496,2.1522,2.1523,2.1523,2.1535,2.1537,2.1538,0,0,0,0,0,2.1476,2.1489,2.1486,2.1488,2.1497,2.1505,2.1506,2.1503,2.1497,2.1502,2.15,2.1495,2.1507,2.1502,2.1503,2.1509,2.1522,2.1523,2.1523,2.1534,2.1536,2.1538,0,0,0,0,0,0,2.1488,2.1489,2.1486,2.1501,2.1502,2.1503,2.151,2.1506,2.1509,2.1508,2.1503,2.1503,2.1511,2.1511,2.1506,2.152,2.1513,2.1514,2.152,2.1522,2.1524,2.1524,2.1496,0,0,0,0,0,2.1493,2.15,2.15,2.1512,2.1514,2.1511,2.1515,2.1512,2.1513,2.1514,2.1513,2.1514,2.1517,2.152,2.1523,2.1534,2.1533,2.1539,2.1541,2.1542,2.1543,2.1546,2.1548,2.1527,2.1527,2.1527,0,0,2.1502,2.1503,2.1508,2.1515,2.1516,2.1522,2.1512,2.152,2.1523,2.1515,2.1522,2.1522,2.1522,2.1531,2.1535,2.1531,2.1548,2.1543,2.1545,2.1545,2.1547,2.1549,2.1551,2.1528,2.1528,2.1527,0,0,2.1522,2.1525,2.1534,2.1535,2.1537,2.1535,2.1537,2.1537,2.1536,2.1544,2.1537,2.154,2.1547,2.1547,2.1547,2.1563,2.1557,2.1564,2.1573,2.1576,2.1577,2.1579,2.1582,2.1584,2.1565,2.1565,2.1565,0,2.1533,2.1542,2.1539,2.1546,2.1548,2.154,2.1548,2.1549,2.1552,2.1552,2.1548,2.1554,2.1554,2.1561,2.1565,2.1567,2.1567,2.1564,2.1578,2.1579,2.158,2.1583,2.1585,2.1566,2.1566,2.1566,2.1566,0,2.1554,2.1561,2.1568,2.157,2.1573,2.158,2.1576,2.1579,2.1575,2.1572,2.1578,2.1577,2.1579,2.1581,2.1577,2.1586,2.1584,2.1579,2.1571,2.1583,2.1586,2.1587,2.1567,2.1567,2.1566,2.1566,0,0,2.1584,2.1582,2.1585,2.1584,2.1584,2.1588,2.1594,2.1596,2.1597,2.1598,2.1601,2.1605,2.16,2.16,2.1597,2.1599,2.1608,2.1593,2.1593,2.1595,2.1616,2.1619,2.162,2.1605,2.1605,2.1605,2.1615,0,2.1601,2.1612,2.1607,2.1618,2.1621,2.1613,2.1618,2.1617,2.1614,2.1616,2.1613,2.1615,2.1609,2.1609,2.1611,2.1607,2.1612,2.1606,2.1606,2.1606,2.1605,2.1622,2.1626,2.1636,2.1616,2.1616,2.1617,0,2.1624,2.1625,2.1636,2.1632,2.1633,2.1638,2.1637,2.164,2.1638,2.1635,2.1635,2.1629,2.1632,2.1625,2.1627,2.1623,2.1622,2.162,2.162,2.162,2.1612,2.162,2.1639,2.164,2.1619,2.1619,2.1618,0,2.1641,2.1645,2.1651,2.1652,2.1648,2.1651,2.165,2.1647,2.1647,2.1647,2.1646,2.1646,2.1645,2.1644,2.1638,2.1633,2.164,2.1633,2.1637,2.1637,2.1638,2.1638,2.1655,2.164,2.164,2.1639,2.1639,0,2.166,2.1666,2.1659,2.1662,2.1668,2.1662,2.1667,2.1665,2.1662,2.1664,2.1657,2.1658,2.165,2.165,2.1645,2.1646,2.1646,2.1643,2.1641,2.1643,2.1643,2.1642,2.1641,2.164,2.164,2.164,2.164,0,2.168,2.1676,2.1681,2.1677,2.1676,2.168,2.1676,2.1678,2.1674,2.1676,2.1676,2.1669,2.1669,2.1662,2.166,2.1656,2.1659,2.1657,2.166,2.1659,2.1662,2.1662,2.1679,2.168,2.1664,2.1665,2.1665,0,2.1692,2.1697,2.1692,2.1693,2.1692,2.1693,2.1693,2.1686,2.1686,2.1683,2.1685,2.1683,2.1682,2.168,2.1675,2.1672,2.1669,2.1675,2.1668,2.1669,2.1667,2.1666,2.1666,2.1676,2.1676,2.1676,2.1677,0,2.1713,2.171,2.1711,2.171,2.171,2.1709,2.1707,2.1708,2.17,2.17,2.1699,2.1698,2.1695,2.1693,2.1689,2.1686,2.1679,2.1679,2.1679,2.1681,2.1682,2.1679,2.1662,2.1678,2.1678,2.1678,2.1678,2.1678,2.1728,2.1731,2.1727,2.1728,2.1725,2.1724,2.1725,2.172,2.172,2.1717,2.1713,2.1712,2.1707,2.1701,2.1698,2.1696,2.1693,2.1694,2.1694,2.1694,2.1694,2.1683,2.1695,2.1695,2.1695,2.1695,2.1695,0,2.1747,2.1744,2.1744,2.1742,2.1741,2.1736,2.1733,2.1732,2.1732,2.1728,2.1727,2.1724,2.1721,2.1715,2.1711,2.171,2.1707,2.171,2.1709,2.1708,2.1698,2.1698,2.1712,2.1712,2.1712,2.1712,2.1712,2.1712,2.1757,2.176,2.1756,2.1757,2.1754,2.1753,2.1752,2.1749,2.1746,2.1744,2.1741,2.1737,2.1732,2.1727,2.1723,2.1721,2.172,2.1723,2.172,2.1711,2.1709,2.1707,2.1707,2.1723,2.1723,2.1729,2.1729,2.1729]}]]